SCP
0 0 0 0 0 0 0 0 0 0 0 0 0 0 0 0 0 0 0 0 0 0 0 0 0 0 0 0 0 0 0 0 0 0 0 0 0 0 0 0 0 0 0
0 0 0 0 0 0 0 0 0 0 0 0 0 0 0 0 0 0 0 0 0 0 0 0 0 0 0 0 0 0 0 0 0 0 0 0 0 0 0 0 0 0 0
0 0 0 0 0 0 0 0 0 0 0 0 0 0 0 0 0 0 0 0 0 0 0 0 0 0 0 0 0 0 0 0 0 0 0 0 0 0 0 0 0 0 0
0 0 0 0 0 0 0 0 0 0 0 0 0 0 0 0 0 0 0 0 0 0 0 0 0 0 0 0 0 0 0 0 0 0 0 0 0 0 0 0 0 0 0
0 0 0 0 0 0 0 0 0 0 0 0 0 0 0 0 0 0 0 0 0 0 0 0 0 0 0 0 0 0 0 0 0 0 0 0 0 0 -0 -0 0 0 0
0 0 0 0 0 0 0 0 0 0 0 0 0 0 0 0 0 0 0 0 0 0 0 0 0 0 0 0 0 0 0 -0 0 0 0 0 0 0 0 0 0 0 0
0 0 0 0 0 0 0 0 0 0 0 0 0 0 0 0 0 0 0 0 0 0 0 0 0 0 0 0 0 0 0 0 -0 0 0 0 0 0 0 0 0 0 0
0 0 0 0 0 0 0 0 0 0 0 0 0 0 0 0 0 0 0 0 0 0 0 0 0 0 0 0 0 0 0 0 -0 0 0 0 0 0 0 0 0 0 0
0 0 0 0 0 0 0 0 0 0 0 0 0 0 0 0 0 0 0 0 0 0 0 0 0 0 0 0 0 0 0 0 0 0 0 0 0 0 0 0 0 0 0
0 0 0 0 0 0 0 0 0 0 0 0 0 0 0 0 0 0 0 0 0 0 0 0 0 0 0 0 0 0 0 0 0 0 0 0 0 0 0 0 0 0 0
0 0 0 0 0 0 0 0 0 0 0 0 0 0 0 0 0 0 0 0 0 0 0 0 0 0 0 0 0 0 0 0 0 0 0 0 0 0 0 0 0 0 0
0 0 0 0 0 0 0 0 0 0 0 0 0 0 0 0 0 0 0 0 0 0 0 0 0 0 0 0 0 0 0 0 0 0 0 0 0 0 0 0 0 0 0
0 0 0 0 0 0 0 0 0 0 0 0 0 0 0 0 0 0 0 0 0 0 0 0 0 0 0 0 0 0 0 0 0 0 0 0 0 0 0 0 0 0 0
0 0 0 0 0 0 0 0 0 0 0 0 0 0 0 0 0 0 0 0 0 0 0 0 0 0 0 0 0 0 0 0 0 0 0 0 0 0 0 0 0 0 0
0 0 0 0 0 0 0 0 0 0 0 0 0 0 0 0 0 0 0 0 0 0 0 0 0 0 0 0 0 0 0 0 0 0 0 0 0 0 0 0 0 0 0
0 0 0 0 0 0 0 0 0 0 0 0 0 0 0 0 0 0 0 0 0 0 0 0 0 0 0 0 0 0 0 0 0 0 0 0 0 0 0 0 0 0 0
0 0 0 0 0 0 0 0 0 0 0 0 0 0 0 0 0 0 0 0 0 0 0 0 0 0 0 0 0 0 0 0 0 0 0 0 0 0 0 0 0 0 0
0 0 0 0 0 0 0 0 0 0 0 0 0 0 0 0 0 0 0 0 0 0 0 0 0 0 0 0 0 0 0 0 0 0 0 0 0 0 0 0 0 0 0
0 0 0 0 0 0 0 0 0 0 0 0 0 0 0 0 0 0 0 0 0 0 0 0 0 0 0 0 0 0 0 0 0 0 0 0 0 0 0 0 0 0 0
0 0 0 0 0 0 0 0 0 0 0 0 0 0 0 0 0 0 0 0 0 0 0 0 0 0 0 0 0 0 0 0 0 0 0 0 0 0 0 0 0 0 0
0 0 0 0 0 0 0 0 0 0 0 0 0 0 0 0 0 0 0 0 0 0 0 0 0 0 0 0 0 0 0 0 0 0 0 0 0 0 0 0 0 0 0
0 0 0 0 0 0 0 0 0 0 0 0 0 0 0 0 0 0 0 0 0 0 0 0 0 0 0 0 0 0 0 0 0 0 0 0 0 0 0 0 0 0 0
0 0 0 0 0 0 0 0 0 0 0 0 0 0 0 0 0 0 0 0 0 0 0 0 0 0 0 0 0 0 0 0 0 0 0 0 0 0 0 0 0 0 0
0 0 0 0 0 0 0 0 0 0 0 0 0 0 0 0 0 0 0 0 0 0 0 0 0 0 0 0 0 0 0 0 0 0 0 0 0 0 0 0 0 0 0
0 0 0 0 0 0 0 0 0 0 0 0 0 0 0 0 0 0 0 0 0 0 0 0 0 0 0 0 0 0 0 0 0 0 0 0 0 0 0 0 0 0 0
0 0 0 0 0 0 0 0 0 0 0 0 0 0 0 0 0 0 0 0 0 0 0 0 0 0 0 0 0 0 0 0 0 0 0 0 0 0 0 0 0 0 0
Wind_Speed_500mb
34 32 31 31 29 31 30 29 29 29 26 24 23 23 22 20 19 19 20 21 21 21 20 18 14 11 14 14 15 11 10 11 11 11 13 15 14 14 14 13 13 13 10
40 38 35 35 35 35 33 33 33 33 31 30 27 26 24 23 22 23 22 21 22 22 19 18 16 15 15 13 18 17 12 11 10 9 11 13 15 15 14 17 16 15 11
44 43 42 40 35 36 36 39 38 39 38 34 31 30 29 27 27 25 24 22 22 21 19 17 16 17 15 15 17 20 17 13 11 10 12 12 14 18 16 18 16 14 14
48 47 47 45 38 40 42 44 41 43 42 39 36 33 34 33 31 29 29 27 26 22 21 17 17 18 17 15 15 22 29 23 25 12 10 11 11 18 17 18 15 12 15
52 51 51 48 43 44 47 48 47 47 46 43 40 38 38 38 35 34 33 30 30 27 23 21 19 17 18 18 18 19 23 31 31 34 27 26 15 14 15 20 17 14 16
58 54 56 52 50 52 53 53 53 50 50 46 46 47 45 44 42 41 37 34 33 33 29 24 23 20 19 19 20 21 24 28 28 31 39 41 26 20 13 20 15 20 20
65 62 63 61 58 60 58 56 55 54 55 51 51 53 53 51 51 47 41 39 38 34 33 28 26 23 20 21 22 24 26 29 27 25 29 23 38 25 22 17 15 20 19
71 71 72 70 66 66 64 65 62 60 62 54 57 52 50 52 51 47 42 41 40 38 35 30 27 23 22 25 28 29 30 31 30 35 33 33 31 28 22 26 17 19 23
77 78 77 75 74 73 74 73 71 69 67 61 60 53 21 18 22 24 26 30 34 42 35 32 29 28 29 32 34 35 35 35 35 33 30 31 32 37 26 18 18 20 27
84 81 81 81 80 79 81 82 79 76 72 73 67 71 71 69 32 27 27 31 36 40 38 33 32 31 38 40 40 41 39 37 34 34 34 35 33 39 27 25 20 20 30
89 88 87 86 87 89 87 87 88 85 81 80 80 77 76 76 78 73 63 53 47 43 41 38 36 43 41 39 41 36 40 37 36 35 37 34 33 40 39 33 33 34 40
95 92 89 91 93 94 93 92 94 93 86 87 87 89 88 80 81 77 82 78 70 55 46 45 44 46 43 45 42 41 36 30 26 26 31 31 37 43 46 53 47 46 51
99 95 91 90 93 96 96 97 98 97 96 93 93 97 97 94 90 84 71 71 71 58 50 42 43 46 45 45 45 38 34 28 30 35 36 33 35 37 47 52 50 46 51
103 98 98 91 91 90 94 98 102 100 100 99 100 101 101 102 94 90 86 75 70 63 57 56 46 48 49 47 41 39 37 33 29 23 23 26 31 34 38 43 43 48 46
106 106 101 100 95 93 92 94 95 94 101 101 102 104 102 100 95 91 87 85 83 61 54 61 54 53 49 46 47 41 37 33 28 25 29 34 36 37 36 36 40 40 42
99 99 100 98 94 91 93 93 90 85 92 97 100 103 100 94 85 81 89 91 85 84 68 61 62 60 56 49 48 43 43 38 31 28 29 33 35 30 30 31 32 34 37
91 94 94 97 90 87 89 95 94 85 89 93 94 96 97 92 84 79 80 90 88 85 84 71 65 61 51 56 49 49 48 41 39 36 33 36 30 28 26 31 36 36 36
80 86 87 91 93 89 91 90 96 88 84 94 92 94 96 93 83 78 94 96 94 88 83 75 73 69 63 59 51 57 47 39 42 39 35 35 29 29 34 37 36 33 35
68 74 83 86 90 91 88 87 90 90 85 86 87 91 95 94 89 89 91 92 101 87 76 77 79 70 67 60 64 58 52 45 43 37 38 35 31 32 39 35 33 36 38
60 70 75 84 84 87 89 94 84 82 83 85 77 83 90 96 99 85 92 90 107 87 75 81 80 80 59 58 58 62 58 45 41 39 38 37 34 37 36 35 37 38 38
59 59 69 74 81 86 87 89 86 78 80 82 85 95 89 95 92 83 104 100 98 89 84 85 87 65 66 62 66 66 56 47 42 43 41 37 37 37 37 38 39 39 38
64 65 66 65 74 82 86 85 88 85 84 91 86 98 91 94 95 87 105 80 95 86 97 79 86 75 64 60 57 57 60 53 47 48 45 40 38 37 38 37 37 37 42
71 66 67 68 70 78 83 83 86 95 85 82 81 83 95 98 97 107 88 82 89 92 81 72 74 72 63 57 54 64 57 52 53 45 43 40 41 39 38 36 37 41 37
69 72 63 65 72 77 76 78 78 82 92 85 76 85 93 86 94 102 92 72 84 79 65 54 62 54 48 45 50 55 52 56 51 44 39 40 41 39 35 33 39 37 30
70 69 71 67 68 76 73 74 78 73 83 87 83 81 80 78 59 69 71 91 80 75 63 58 60 49 49 49 53 58 61 58 53 49 44 42 37 33 33 34 36 31 30
79 73 72 72 74 76 72 72 65 72 81 87 85 81 86 71 66 67 80 92 78 69 61 62 57 54 53 55 59 58 55 58 53 46 46 43 35 32 22 32 28 26 33
Wind_Direction_500mb
234 233 232 234 236 239 240 240 242 245 249 255 260 264 267 273 281 288 287 288 292 289 290 292 279 269 294 292 299 302 315 321 334 344 349 351 347 336 337 330 328 329 321
242 241 241 243 242 245 244 245 247 249 250 252 257 263 266 272 275 277 281 284 288 281 283 282 272 258 257 278 277 293 293 297 307 323 334 343 335 322 327 318 317 309 312
246 245 245 247 248 249 249 246 246 250 253 255 255 257 262 265 267 268 272 279 283 277 273 270 265 260 258 251 261 276 277 289 290 309 317 337 337 314 326 317 310 303 299
250 250 250 250 250 250 250 250 249 251 255 255 258 258 262 262 264 266 267 272 274 269 266 264 257 256 259 262 263 262 275 286 293 312 310 295 338 303 313 308 311 287 282
250 252 252 253 251 251 250 251 252 253 255 257 260 261 260 261 262 263 265 268 270 261 252 252 250 252 260 268 271 275 275 276 281 293 305 284 289 316 307 314 316 286 282
250 252 254 252 249 249 249 250 252 254 257 260 262 261 260 260 261 261 263 264 262 257 246 246 252 253 258 269 274 282 290 284 285 283 279 282 274 292 288 303 339 337 275
254 255 255 252 248 248 250 252 254 256 257 258 262 262 263 263 262 263 263 261 254 247 245 241 248 253 260 266 276 282 282 282 281 280 276 286 281 285 275 295 310 298 273
253 254 254 254 252 252 251 250 249 250 254 252 254 266 277 277 271 267 261 255 252 235 242 245 249 249 259 265 274 277 278 279 269 280 280 291 269 274 288 292 305 296 267
254 252 254 255 256 254 255 255 252 251 252 253 250 247 259 256 277 271 259 249 250 236 243 243 242 259 268 273 269 273 278 281 275 273 276 274 266 263 279 277 295 287 274
258 255 254 254 256 257 254 256 257 253 252 253 250 249 250 255 267 284 265 258 251 242 248 251 249 257 267 274 269 268 270 276 276 273 271 264 263 245 261 265 267 262 266
260 260 257 255 255 255 257 256 257 256 254 253 254 253 254 254 256 254 270 266 256 248 241 257 255 260 266 273 271 268 271 270 264 262 263 259 258 226 246 232 251 266 275
271 264 260 259 257 256 258 259 259 260 257 257 256 256 253 251 254 252 255 263 265 264 262 260 257 264 265 267 266 267 271 274 279 277 264 255 235 237 237 238 254 264 269
273 276 272 265 261 260 260 259 260 261 260 257 256 256 258 256 256 259 259 265 267 268 266 257 262 265 265 267 260 263 259 259 281 289 267 253 236 239 241 248 254 264 272
275 277 278 277 271 268 265 261 260 262 263 263 260 259 258 260 259 259 258 260 261 265 263 258 260 263 262 262 257 255 258 262 273 290 267 251 243 241 247 255 256 264 270
278 278 280 279 278 277 272 267 263 265 266 266 266 262 261 260 263 263 262 260 256 253 253 256 257 260 255 253 254 247 254 255 260 279 268 265 262 253 262 260 263 269 270
279 279 279 279 279 279 277 271 265 267 267 267 267 265 265 261 261 268 268 260 252 253 248 256 256 258 254 251 251 247 248 255 252 261 270 265 268 269 271 274 279 275 269
279 278 279 278 278 277 274 273 270 266 265 269 266 264 263 261 256 257 270 262 254 247 247 245 250 252 239 245 240 239 241 249 253 251 264 267 265 266 272 278 277 271 274
278 278 278 279 278 277 276 275 274 271 271 267 266 265 262 260 253 256 257 260 253 249 247 242 243 236 248 238 238 240 230 239 247 252 258 254 256 263 273 273 274 279 278
274 274 277 277 277 276 276 275 274 273 270 270 269 266 263 257 258 257 255 253 248 247 245 242 245 241 235 237 224 228 227 227 236 243 243 244 249 262 271 269 272 274 277
294 277 271 273 275 277 275 272 271 272 276 272 271 270 266 258 258 260 259 251 245 242 237 240 241 238 229 231 224 224 220 224 225 231 230 239 250 255 262 272 273 273 277
292 290 284 275 271 270 271 271 266 267 269 272 277 265 265 260 259 261 253 249 242 236 236 235 234 222 219 227 225 218 215 217 218 225 227 233 242 254 264 269 270 276 280
292 288 285 281 279 270 268 268 265 261 268 269 266 267 268 264 264 262 250 250 245 233 234 230 224 219 227 222 224 221 213 209 207 219 222 231 243 256 262 263 270 274 283
296 292 288 285 277 275 269 268 267 265 266 260 264 267 267 270 262 263 249 241 249 244 237 230 224 221 220 234 228 212 217 220 222 218 221 231 241 247 254 260 269 277 285
303 297 294 287 282 274 273 267 264 268 268 264 265 266 268 274 259 266 244 240 239 244 230 221 225 228 231 232 228 224 222 213 212 216 219 227 235 239 247 258 268 275 273
318 307 299 291 281 276 270 267 267 264 264 263 261 268 268 267 259 258 256 259 236 222 214 209 208 216 219 212 217 207 203 204 207 214 219 224 228 230 240 252 259 270 264
325 315 304 296 287 276 269 263 261 261 260 259 259 259 265 256 261 263 259 240 210 198 207 206 218 214 206 207 205 207 216 208 210 215 220 219 226 220 234 248 255 268 266
Wind_Speed_850mb
34 32 31 31 29 31 30 29 29 29 26 24 23 23 22 20 19 19 20 21 21 21 20 18 14 11 14 14 15 11 10 11 11 11 13 15 14 14 14 13 13 13 10
40 38 35 35 35 35 33 33 33 33 31 30 27 26 24 23 22 23 22 21 22 22 19 18 16 15 15 13 18 17 12 11 10 9 11 13 15 15 14 17 16 15 11
44 43 42 40 35 36 36 39 38 39 38 34 31 30 29 27 27 25 24 22 22 21 19 17 16 17 15 15 17 20 17 13 11 10 12 12 14 18 16 18 16 14 14
48 47 47 45 38 40 42 44 41 43 42 39 36 33 34 33 31 29 29 27 26 22 21 17 17 18 17 15 15 22 29 23 25 12 10 11 11 18 17 18 15 12 15
52 51 51 48 43 44 47 48 47 47 46 43 40 38 38 38 35 34 33 30 30 27 23 21 19 17 18 18 18 19 23 31 31 34 27 26 15 14 15 20 17 14 16
58 54 56 52 50 52 53 53 53 50 50 46 46 47 45 44 42 41 37 34 33 33 29 24 23 20 19 19 20 21 24 28 28 31 39 41 26 20 13 20 15 20 20
65 62 63 61 58 60 58 56 55 54 55 51 51 53 53 51 51 47 41 39 38 34 33 28 26 23 20 21 22 24 26 29 27 25 29 23 38 25 22 17 15 20 19
71 71 72 70 66 66 64 65 62 60 62 54 57 52 50 52 51 47 42 41 40 38 35 30 27 23 22 25 28 29 30 31 30 35 33 33 31 28 22 26 17 19 23
77 78 77 75 74 73 74 73 71 69 67 61 60 53 21 18 22 24 26 30 34 42 35 32 29 28 29 32 34 35 35 35 35 33 30 31 32 37 26 18 18 20 27
84 81 81 81 80 79 81 82 79 76 72 73 67 71 71 69 32 27 27 31 36 40 38 33 32 31 38 40 40 41 39 37 34 34 34 35 33 39 27 25 20 20 30
89 88 87 86 87 89 87 87 88 85 81 80 80 77 76 76 78 73 63 53 47 43 41 38 36 43 41 39 41 36 40 37 36 35 37 34 33 40 39 33 33 34 40
95 92 89 91 93 94 93 92 94 93 86 87 87 89 88 80 81 77 82 78 70 55 46 45 44 46 43 45 42 41 36 30 26 26 31 31 37 43 46 53 47 46 51
99 95 91 90 93 96 96 97 98 97 96 93 93 97 97 94 90 84 71 71 71 58 50 42 43 46 45 45 45 38 34 28 30 35 36 33 35 37 47 52 50 46 51
103 98 98 91 91 90 94 98 102 100 100 99 100 101 101 102 94 90 86 75 70 63 57 56 46 48 49 47 41 39 37 33 29 23 23 26 31 34 38 43 43 48 46
106 106 101 100 95 93 92 94 95 94 101 101 102 104 102 100 95 91 87 85 83 61 54 61 54 53 49 46 47 41 37 33 28 25 29 34 36 37 36 36 40 40 42
99 99 100 98 94 91 93 93 90 85 92 97 100 103 100 94 85 81 89 91 85 84 68 61 62 60 56 49 48 43 43 38 31 28 29 33 35 30 30 31 32 34 37
91 94 94 97 90 87 89 95 94 85 89 93 94 96 97 92 84 79 80 90 88 85 84 71 65 61 51 56 49 49 48 41 39 36 33 36 30 28 26 31 36 36 36
80 86 87 91 93 89 91 90 96 88 84 94 92 94 96 93 83 78 94 96 94 88 83 75 73 69 63 59 51 57 47 39 42 39 35 35 29 29 34 37 36 33 35
68 74 83 86 90 91 88 87 90 90 85 86 87 91 95 94 89 89 91 92 101 87 76 77 79 70 67 60 64 58 52 45 43 37 38 35 31 32 39 35 33 36 38
60 70 75 84 84 87 89 94 84 82 83 85 77 83 90 96 99 85 92 90 107 87 75 81 80 80 59 58 58 62 58 45 41 39 38 37 34 37 36 35 37 38 38
59 59 69 74 81 86 87 89 86 78 80 82 85 95 89 95 92 83 104 100 98 89 84 85 87 65 66 62 66 66 56 47 42 43 41 37 37 37 37 38 39 39 38
64 65 66 65 74 82 86 85 88 85 84 91 86 98 91 94 95 87 105 80 95 86 97 79 86 75 64 60 57 57 60 53 47 48 45 40 38 37 38 37 37 37 42
71 66 67 68 70 78 83 83 86 95 85 82 81 83 95 98 97 107 88 82 89 92 81 72 74 72 63 57 54 64 57 52 53 45 43 40 41 39 38 36 37 41 37
69 72 63 65 72 77 76 78 78 82 92 85 76 85 93 86 94 102 92 72 84 79 65 54 62 54 48 45 50 55 52 56 51 44 39 40 41 39 35 33 39 37 30
70 69 71 67 68 76 73 74 78 73 83 87 83 81 80 78 59 69 71 91 80 75 63 58 60 49 49 49 53 58 61 58 53 49 44 42 37 33 33 34 36 31 30
79 73 72 72 74 76 72 72 65 72 81 87 85 81 86 71 66 67 80 92 78 69 61 62 57 54 53 55 59 58 55 58 53 46 46 43 35 32 22 32 28 26 33
Wind_Direction_850mb
234 233 232 234 236 239 240 240 242 245 249 255 260 264 267 273 281 288 287 288 292 289 290 292 279 269 294 292 299 302 315 321 334 344 349 351 347 336 337 330 328 329 321
242 241 241 243 242 245 244 245 247 249 250 252 257 263 266 272 275 277 281 284 288 281 283 282 272 258 257 278 277 293 293 297 307 323 334 343 335 322 327 318 317 309 312
246 245 245 247 248 249 249 246 246 250 253 255 255 257 262 265 267 268 272 279 283 277 273 270 265 260 258 251 261 276 277 289 290 309 317 337 337 314 326 317 310 303 299
250 250 250 250 250 250 250 250 249 251 255 255 258 258 262 262 264 266 267 272 274 269 266 264 257 256 259 262 263 262 275 286 293 312 310 295 338 303 313 308 311 287 282
250 252 252 253 251 251 250 251 252 253 255 257 260 261 260 261 262 263 265 268 270 261 252 252 250 252 260 268 271 275 275 276 281 293 305 284 289 316 307 314 316 286 282
250 252 254 252 249 249 249 250 252 254 257 260 262 261 260 260 261 261 263 264 262 257 246 246 252 253 258 269 274 282 290 284 285 283 279 282 274 292 288 303 339 337 275
254 255 255 252 248 248 250 252 254 256 257 258 262 262 263 263 262 263 263 261 254 247 245 241 248 253 260 266 276 282 282 282 281 280 276 286 281 285 275 295 310 298 273
253 254 254 254 252 252 251 250 249 250 254 252 254 266 277 277 271 267 261 255 252 235 242 245 249 249 259 265 274 277 278 279 269 280 280 291 269 274 288 292 305 296 267
254 252 254 255 256 254 255 255 252 251 252 253 250 247 259 256 277 271 259 249 250 236 243 243 242 259 268 273 269 273 278 281 275 273 276 274 266 263 279 277 295 287 274
258 255 254 254 256 257 254 256 257 253 252 253 250 249 250 255 267 284 265 258 251 242 248 251 249 257 267 274 269 268 270 276 276 273 271 264 263 245 261 265 267 262 266
260 260 257 255 255 255 257 256 257 256 254 253 254 253 254 254 256 254 270 266 256 248 241 257 255 260 266 273 271 268 271 270 264 262 263 259 258 226 246 232 251 266 275
271 264 260 259 257 256 258 259 259 260 257 257 256 256 253 251 254 252 255 263 265 264 262 260 257 264 265 267 266 267 271 274 279 277 264 255 235 237 237 238 254 264 269
273 276 272 265 261 260 260 259 260 261 260 257 256 256 258 256 256 259 259 265 267 268 266 257 262 265 265 267 260 263 259 259 281 289 267 253 236 239 241 248 254 264 272
275 277 278 277 271 268 265 261 260 262 263 263 260 259 258 260 259 259 258 260 261 265 263 258 260 263 262 262 257 255 258 262 273 290 267 251 243 241 247 255 256 264 270
278 278 280 279 278 277 272 267 263 265 266 266 266 262 261 260 263 263 262 260 256 253 253 256 257 260 255 253 254 247 254 255 260 279 268 265 262 253 262 260 263 269 270
279 279 279 279 279 279 277 271 265 267 267 267 267 265 265 261 261 268 268 260 252 253 248 256 256 258 254 251 251 247 248 255 252 261 270 265 268 269 271 274 279 275 269
279 278 279 278 278 277 274 273 270 266 265 269 266 264 263 261 256 257 270 262 254 247 247 245 250 252 239 245 240 239 241 249 253 251 264 267 265 266 272 278 277 271 274
278 278 278 279 278 277 276 275 274 271 271 267 266 265 262 260 253 256 257 260 253 249 247 242 243 236 248 238 238 240 230 239 247 252 258 254 256 263 273 273 274 279 278
274 274 277 277 277 276 276 275 274 273 270 270 269 266 263 257 258 257 255 253 248 247 245 242 245 241 235 237 224 228 227 227 236 243 243 244 249 262 271 269 272 274 277
294 277 271 273 275 277 275 272 271 272 276 272 271 270 266 258 258 260 259 251 245 242 237 240 241 238 229 231 224 224 220 224 225 231 230 239 250 255 262 272 273 273 277
292 290 284 275 271 270 271 271 266 267 269 272 277 265 265 260 259 261 253 249 242 236 236 235 234 222 219 227 225 218 215 217 218 225 227 233 242 254 264 269 270 276 280
292 288 285 281 279 270 268 268 265 261 268 269 266 267 268 264 264 262 250 250 245 233 234 230 224 219 227 222 224 221 213 209 207 219 222 231 243 256 262 263 270 274 283
296 292 288 285 277 275 269 268 267 265 266 260 264 267 267 270 262 263 249 241 249 244 237 230 224 221 220 234 228 212 217 220 222 218 221 231 241 247 254 260 269 277 285
303 297 294 287 282 274 273 267 264 268 268 264 265 266 268 274 259 266 244 240 239 244 230 221 225 228 231 232 228 224 222 213 212 216 219 227 235 239 247 258 268 275 273
318 307 299 291 281 276 270 267 267 264 264 263 261 268 268 267 259 258 256 259 236 222 214 209 208 216 219 212 217 207 203 204 207 214 219 224 228 230 240 252 259 270 264
325 315 304 296 287 276 269 263 261 261 260 259 259 259 265 256 261 263 259 240 210 198 207 206 218 214 206 207 205 207 216 208 210 215 220 219 226 220 234 248 255 268 266